ISS (ZARYA) 1 25544U 98067A 10246.46805795 .00008120 00000-0 66810-4 0 8240 2 25544 051.6461 190.0693 0007889 329.3818 135.0793 15.71433930675786 PROGRESS-M 03M (Decayed 2010-04-27) 1 35948U 09056A 10117.56794139 .00057297 00000-0 30008-3 0 2169 2 35948 051.6454 130.1536 0024769 309.7886 143.2205 15.79775315 30688 SOYUZ-TMA 17 (Decayed 2010-06-02) 1 36129U 09074A 10152.50217123 +.00026765 +00000-0 +17876-3 0 01250 2 36129 051.6473 310.9826 0009003 011.7112 093.2006 15.75086113025636 PROGRESS-M 04M (Decayed 2010-07-01) 1 36361U 10003A 10182.22099537 .00008802 00000-0 66933-4 0 3108 2 36361 051.6463 158.2971 0005421 041.2652 144.9421 15.73210645 23331 SOYUZ-TMA 18 1 36505U 10011A 10245.44977010 +.00008239 +00000-0 +67764-4 0 01242 2 36505 051.6453 195.2805 0008095 325.3591 134.6362 15.71415774024132 PROGRESS M-05M 1 36521U 10018A 10245.44977010 +.00008239 +00000-0 +67764-4 0 01089 2 36521 051.6453 195.2805 0008095 325.3591 134.6362 15.71415774019954